Station PRHH1 - 1612401 - Pearl Harbor, HI Image indicating link to RSS feed of recent meteorological observations for station PRHH1


Conditions at PRHH1 as of
(8:48 am HAST)
1848 GMT on 04/13/2024:
     

Click on the graph icon in the table below to see a time series plot of the last five days of that observation.

5-day plot - Wind Direction Wind Direction (WDIR):SSE ( 160 deg true )
5-day plot - Wind Speed Wind Speed (WSPD): 8.0 kts
5-day plot - Wind Gust Wind Gust (GST): 9.9 kts
5-day plot - Atmospheric Pressure Atmospheric Pressure (PRES):30.03 in
5-day plot - Wind Speed at 10 Meters Wind Speed at 10 meters (WSPD10M): 7.8 kts
5-day plot - Wind Speed at 20 Meters Wind Speed at 20 meters (WSPD20M): 7.8 kts
5-day plot -  Wind Speed, Wind Gust and Atmospheric Pressure Combined plot of Wind Speed, Gust, and Air Pressure
NOS Water Level Observation Network Water Level
Previous observations
TIME
(HAST)
5-day plot - Wind Direction
WDIR
 
5-day plot - Wind Speed
WSPD
kts
5-day plot - Wind Gust
GST
kts
5-day plot - Wave Height
WVHT
ft
5-day plot - Dominant Wave Period
DPD
sec
5-day plot - Average Wave Period
APD
sec
5-day plot - Mean Wave Direction
MWD
 
5-day plot - Atmospheric Pressure
PRES
in
5-day plot - Pressure Tendency
PTDY
in
5-day plot - Air Temperature
ATMP
°F
5-day plot - Water Temperature
WTMP
°F
5-day plot - Dew Point
DEWP
°F
5-day plot - Salinity
SAL
psu
5-day plot - Visibility
VIS
nmi
5-day plot - Tide (above MLLW)
TIDE
ft
2024-04-13 08:42 am SE 7.0 11.1----30.03-------
2024-04-13 08:36 amSSE 7.0 9.9----30.03-------
2024-04-13 08:30 amSSE 7.0 9.9----30.03- 77.0-----
2024-04-13 08:24 amSSE 8.0 8.9----30.03- 76.3-----
2024-04-13 08:18 am-------30.03-------
2024-04-13 08:12 am-------30.03-------
2024-04-13 08:06 am-------30.03-------
2024-04-13 08:00 amSSE 7.0 11.1----30.03+0.05 76.6-----
2024-04-13 07:54 amSSE 7.0 9.9----30.03- 76.5-----
2024-04-13 07:48 amSSE 6.0 9.9----30.03-------
2024-04-13 07:42 amSSE 8.0 8.9----30.02-------
2024-04-13 07:36 amSSE 7.0 9.9----30.02-------
2024-04-13 07:30 amSSE 6.0 8.9----30.02- 75.9-----
2024-04-13 07:24 amSSE 6.0 8.0----30.01- 76.1-----
2024-04-13 07:18 amSSE 4.1 6.0----30.01- 76.1-----
2024-04-13 07:12 am SE 4.1 6.0----30.01- 75.7-----
2024-04-13 07:06 am SE 2.9 5.1----30.00- 75.4-----
2024-04-13 07:00 amSSE 2.9 5.1----30.00+0.02 75.2-----
2024-04-13 06:54 am SE 2.9 5.1----29.99- 74.8-----
2024-04-13 06:48 amSSE 2.9 5.1----30.00- 75.0-----
2024-04-13 06:42 am SE 2.9 5.1----29.99- 75.2-----
2024-04-13 06:36 am SE 4.1 5.1----29.99- 75.0-----
2024-04-13 06:30 amESE 4.1 6.0----29.99-------
2024-04-13 06:24 am SE 2.9 5.1----29.99-------
2024-04-13 06:18 am SE 2.9 4.1----29.99-------
2024-04-13 06:12 amSSE 2.9 5.1----29.99-------
2024-04-13 06:06 amSSE 4.1 6.0----29.99-------
2024-04-13 06:00 amSSE 4.1 5.1----29.99+0.01 74.7-----
2024-04-13 05:54 amSSE 2.9 4.1----29.98- 74.7-----
2024-04-13 05:48 am-------29.98-------
2024-04-13 05:42 am-------29.98-------
2024-04-13 05:36 am-------29.97-------
2024-04-13 05:30 am E 1.9 2.9----29.97- 74.5-----
2024-04-13 05:24 am E 1.9 2.9----29.97- 74.7-----
2024-04-13 05:18 amESE 2.9 4.1----29.97- 74.7-----
2024-04-13 05:12 am E 1.9 2.9----29.97- 74.5-----
2024-04-13 05:06 amENE 1.9 2.9----29.97- 74.7-----
2024-04-13 05:00 am- 0.0 2.9----29.97- 74.7-----
2024-04-13 04:54 am SE 1.9 2.9----29.97- 74.7-----
2024-04-13 04:48 am E 1.9 2.9----29.97- 74.7-----
2024-04-13 04:42 am E 2.9 4.1----29.96- 74.8-----
2024-04-13 04:36 am E 2.9 2.9----29.96- 74.8-----
2024-04-13 04:30 am E 1.9 2.9----29.97- 74.8-----
2024-04-13 04:24 am E 1.9 5.1----29.97- 74.8-----
2024-04-13 04:18 amESE 1.9 2.9----29.97- 74.7-----
2024-04-13 04:12 amESE 1.0 4.1----29.98- 74.8-----
2024-04-13 04:06 amESE 1.9 2.9----29.98- 74.7-----
2024-04-13 04:00 amSSE 1.9 2.9----29.98-0.03 74.7-----
2024-04-13 03:54 am SE 1.0 2.9----29.98- 74.5-----
2024-04-13 03:48 amESE 1.9 2.9----29.98- 74.5-----
2024-04-13 03:42 am E 1.9 2.9----29.98- 74.5-----
2024-04-13 03:36 am E 1.0 1.9----29.98- 74.5-----
2024-04-13 03:30 am E 1.9 1.9----29.98- 74.5-----
2024-04-13 03:24 am E 2.9 2.9----29.98- 74.7-----
2024-04-13 03:18 am E 1.0 2.9----29.98- 74.7-----
2024-04-13 03:12 amESE 1.9 2.9----29.98- 74.7-----
2024-04-13 03:06 amESE 1.9 4.1----29.98- 74.8-----
2024-04-13 03:00 am E 4.1 6.0----29.98-0.06------
2024-04-13 02:54 amESE 2.9 4.1----29.98-------
2024-04-13 02:48 amESE 1.9 5.1----29.99- 75.0-----
2024-04-13 02:42 amESE 4.1 6.0----29.99- 75.0-----
2024-04-13 02:36 am SE 4.1 5.1----30.00- 75.2-----
2024-04-13 02:30 amESE 4.1 7.0----29.99- 75.2-----
2024-04-13 02:24 amESE 5.1 8.9----29.99- 75.2-----
2024-04-13 02:18 am SE 7.0 9.9----30.00- 75.2-----
2024-04-13 02:12 am SE 2.9 6.0----30.00- 75.4-----
2024-04-13 02:06 am SE 6.0 8.9----30.00- 75.4-----
2024-04-13 02:00 am SE 4.1 6.0------------
2024-04-13 01:54 amESE 2.9 7.0------------
2024-04-13 01:48 am SE 5.1 6.0----30.00-------
2024-04-13 01:42 am SE 1.9 4.1----30.01-------
2024-04-13 01:36 am SE 4.1 7.0----30.00-------
2024-04-13 01:30 am SE 6.0 8.9----30.00-------
2024-04-13 01:24 am SE 5.1 8.9----30.00-------
2024-04-13 01:18 am-------30.01- 75.4-----
2024-04-13 01:12 am-------30.01- 75.4-----
2024-04-13 01:06 am-------30.01- 75.4-----
2024-04-13 01:00 am SE 5.1 7.0----30.01-0.04 75.4-----
2024-04-13 12:54 amESE 4.1 7.0----30.01- 75.6-----
2024-04-13 12:48 am SE 4.1 8.0----30.02-------
2024-04-13 12:42 am SE 5.1 7.0----30.03-------
2024-04-13 12:36 am SE 5.1 7.0----30.03-------
2024-04-13 12:30 amSSE 5.1 7.0----30.03- 75.6-----
2024-04-13 12:24 am SE 4.1 6.0----30.03- 75.6-----
2024-04-13 12:18 am-------30.04- 75.6-----
2024-04-13 12:12 am-------30.03- 75.6-----
2024-04-13 12:06 am-------30.03- 75.4-----
2024-04-13 12:00 amESE 6.0 8.0----30.04+0.00------
2024-04-12 11:54 pm SE 6.0 8.0----30.04-------
2024-04-12 11:48 pm SE 5.1 8.0----30.05- 75.2-----
2024-04-12 11:42 pm SE 5.1 7.0----30.05- 75.2-----
2024-04-12 11:36 pm SE 4.1 8.9----30.06- 75.0-----
2024-04-12 11:30 pm SE 5.1 8.0----30.06- 75.0-----
2024-04-12 11:24 pmESE 5.1 8.9----30.06- 75.0-----
2024-04-12 11:18 pmESE 5.1 9.9----30.06- 75.0-----
2024-04-12 11:12 pm SE 7.0 8.9----30.06- 75.0-----
2024-04-12 11:06 pmSSE 6.0 8.9----30.06- 75.4-----
2024-04-12 11:00 pm SE 8.0 11.1----30.06+0.04 75.4-----
2024-04-12 10:54 pmESE 2.9 8.0----30.06- 75.6-----
2024-04-12 10:48 pm E 4.1 8.0----30.05- 75.4-----
2024-04-12 10:42 pmESE 5.1 7.0----30.06- 75.6-----
2024-04-12 10:36 pmESE 4.1 8.0----30.06- 75.6-----
2024-04-12 10:30 pmESE 6.0 8.0----30.06-------
2024-04-12 10:24 pm SE 8.9 12.0----30.07-------
2024-04-12 10:18 pm SE 7.0 9.9----30.06- 75.7-----
2024-04-12 10:12 pm SE 6.0 8.9----30.06- 75.6-----
2024-04-12 10:06 pmESE 6.0 8.9----30.06- 75.4-----
2024-04-12 10:00 pmESE 4.1 9.9----30.05+0.05------
2024-04-12 09:54 pmESE 5.1 8.9----30.05-------
2024-04-12 09:48 pmESE 4.1 9.9----30.05- 75.4-----
2024-04-12 09:42 pmESE 4.1 8.0----30.04- 75.4-----
2024-04-12 09:36 pm E 5.1 8.0----30.04- 75.4-----
2024-04-12 09:30 pm E 5.1 7.0----30.04- 75.4-----
2024-04-12 09:24 pmESE 1.9 6.0----30.04- 75.4-----
2024-04-12 09:18 pmESE 5.1 11.1----30.03- 75.6-----
2024-04-12 09:12 pm E 6.0 8.9----30.03- 75.6-----
2024-04-12 09:06 pm E 6.0 9.9----30.03- 75.6-----
2024-04-12 09:00 pm E 4.1 9.9----30.04+0.05 75.7-----
2024-04-12 08:54 pmESE 6.0 9.9----30.04- 75.7-----
2024-04-12 08:48 pmESE 5.1 8.0----30.04- 75.7-----
2024-04-12 08:42 pmESE 1.0 4.1----30.04- 75.7-----
2024-04-12 08:36 pm SE 2.9 8.0----30.03- 75.6-----
2024-04-12 08:30 pm E 5.1 7.0----30.02- 75.6-----
2024-04-12 08:24 pm E 5.1 8.9----30.01- 75.6-----
2024-04-12 08:18 pmESE 6.0 9.9----30.02- 75.6-----
2024-04-12 08:12 pmESE 7.0 9.9----30.02- 75.6-----
2024-04-12 08:06 pmESE 5.1 11.1----30.01- 75.6-----
2024-04-12 08:00 pmESE 5.1 13.0----30.01+0.06 75.6-----
2024-04-12 07:54 pm E 7.0 12.0----30.01- 75.7-----
2024-04-12 07:48 pmESE 6.0 12.0----30.01- 75.6-----
2024-04-12 07:42 pmESE 6.0 12.0----30.01- 75.6-----
2024-04-12 07:36 pmESE 8.9 13.0----30.01- 75.6-----
2024-04-12 07:30 pmESE 8.0 14.0----30.01- 75.4-----
2024-04-12 07:24 pmESE 6.0 9.9----30.00- 75.6-----
2024-04-12 07:18 pmESE 6.0 9.9----30.00- 75.6-----
2024-04-12 07:12 pmESE 6.0 9.9----30.00- 75.7-----
2024-04-12 07:06 pmESE 6.0 9.9----30.00- 75.7-----
2024-04-12 07:00 pm-------30.00+0.05 75.9-----
2024-04-12 06:54 pm-------30.00- 75.7-----
2024-04-12 06:48 pm SE 5.1 7.0----30.00- 75.7-----
2024-04-12 06:42 pmESE 4.1 7.0----30.00- 75.7-----
2024-04-12 06:36 pmESE 5.1 7.0----29.99- 75.7-----
2024-04-12 06:30 pm E 4.1 7.0----29.99- 75.7-----
2024-04-12 06:24 pmESE 5.1 7.0----29.99- 75.9-----
2024-04-12 06:18 pmESE 5.1 7.0----29.99- 76.1-----
2024-04-12 06:12 pmESE 6.0 8.9----29.99- 75.9-----
2024-04-12 06:06 pm SE 7.0 9.9----29.99- 76.1-----
2024-04-12 06:00 pm SE 6.0 9.9----29.99+0.01 75.9-----
2024-04-12 05:54 pm SE 4.1 11.1----29.98- 76.6-----
2024-04-12 05:48 pmSSE 7.0 9.9----29.98- 76.5-----
2024-04-12 05:42 pmSSE 7.0 9.9----29.98- 76.5-----
2024-04-12 05:36 pmSSE 7.0 8.9----29.98- 76.5-----
2024-04-12 05:30 pm S 6.0 8.9----29.98- 76.6-----
2024-04-12 05:24 pmSSE 6.0 8.9----29.97- 77.0-----
2024-04-12 05:18 pmSSE 7.0 9.9----29.97- 76.5-----
2024-04-12 05:12 pmSSE 8.9 11.1----29.96- 76.5-----
2024-04-12 05:06 pm SE 8.0 11.1----29.96- 76.8-----
2024-04-12 05:00 pm SE 6.0 11.1----29.96-0.03 77.4-----
2024-04-12 04:54 pm SE 5.1 11.1----29.96- 77.0-----
2024-04-12 04:48 pm SE 8.9 11.1----29.96- 76.8-----
2024-04-12 04:42 pm E 5.1 9.9----29.95- 77.2-----
2024-04-12 04:36 pmESE 6.0 8.9----29.96- 77.7-----
2024-04-12 04:30 pm E 6.0 11.1----29.96- 77.7-----
2024-04-12 04:24 pmESE 6.0 13.0----29.96- 77.7-----
2024-04-12 04:18 pmESE 7.0 12.0----29.96- 77.7-----
2024-04-12 04:12 pmESE 6.0 12.0----29.95- 77.9-----
2024-04-12 04:06 pmESE 7.0 11.1----29.95- 77.9-----
2024-04-12 04:00 pmESE 5.1 8.9----29.95-0.06 78.3-----
2024-04-12 03:54 pmESE 6.0 9.9----29.96- 78.1-----
2024-04-12 03:48 pmESE 5.1 7.0----29.95- 78.3-----
2024-04-12 03:42 pmESE 4.1 8.9----29.94- 78.1-----
2024-04-12 03:36 pmESE 4.1 8.0----29.95- 77.9-----
2024-04-12 03:30 pm E 5.1 8.0----29.95- 77.5-----
2024-04-12 03:24 pm E 5.1 7.0----29.96- 77.4-----
2024-04-12 03:18 pm E 4.1 7.0----29.96- 77.4-----
2024-04-12 03:12 pmSSE 4.1 8.0----29.96- 76.8-----
2024-04-12 03:06 pm S 5.1 8.9----29.97- 77.0-----
2024-04-12 03:00 pm S 6.0 8.9----29.97-0.04 77.2-----
2024-04-12 02:54 pmSSE 6.0 8.0----29.97- 77.5-----
2024-04-12 02:48 pmSSE 5.1 7.0----29.98- 77.9-----
2024-04-12 02:42 pmESE 6.0 8.0----29.98- 77.2-----
2024-04-12 02:36 pmESE 6.0 8.9----29.96- 77.2-----
2024-04-12 02:30 pmESE 5.1 11.1----29.97- 77.4-----
2024-04-12 02:24 pm SE 7.0 9.9----29.97- 76.8-----
2024-04-12 02:18 pm SE 6.0 12.0----29.97- 77.0-----
2024-04-12 02:12 pm SE 7.0 11.1----29.98- 76.8-----
2024-04-12 02:06 pm SE 8.9 13.0----29.98- 76.8-----
2024-04-12 02:00 pmESE 8.9 12.0----29.98-0.05 77.4-----
2024-04-12 01:54 pmESE 8.0 11.1----29.99- 77.4-----
2024-04-12 01:48 pmESE 8.0 11.1----29.98- 77.4-----
2024-04-12 01:42 pm E 7.0 9.9----29.99- 77.7-----
2024-04-12 01:36 pm E 6.0 8.9----29.99- 78.1-----
2024-04-12 01:30 pmENE 1.9 6.0----29.99- 78.6-----
2024-04-12 01:24 pm E 6.0 8.9----30.00- 78.3-----
2024-04-12 01:18 pm- 0.0 1.0----30.01- 79.2-----
2024-04-12 01:12 pm- 0.0 1.9----30.01- 78.3-----
2024-04-12 01:06 pmNNW 2.9 8.0----30.01- 77.9-----
2024-04-12 01:00 pmNNE 6.0 8.0----30.01-0.03 78.1-----
2024-04-12 12:54 pm N 1.0 2.9----30.02- 78.1-----
2024-04-12 12:48 pmESE 1.9 2.9----30.02- 77.9-----
2024-04-12 12:42 pmNNE 2.9 5.1----30.02- 77.5-----
2024-04-12 12:36 pm N 6.0 8.0----30.02- 77.2-----
2024-04-12 12:30 pm N 4.1 7.0----30.02- 76.8-----
2024-04-12 12:24 pm N 5.1 7.0----30.02- 77.0-----
2024-04-12 12:18 pm W 1.9 4.1----30.03- 76.6-----
2024-04-12 12:12 pmNNE 1.9 2.9----30.01- 76.1-----
2024-04-12 12:06 pmENE 1.9 2.9----30.00- 75.7-----
2024-04-12 12:00 pmSSW 2.9 5.1----30.01-0.05 75.4-----
2024-04-12 11:54 amWSW 5.1 5.1----30.01- 75.6-----
2024-04-12 11:48 am SW 2.9 2.9----30.02- 75.6-----
2024-04-12 11:42 amWSW 1.9 2.9----30.01- 75.4-----
2024-04-12 11:36 am- 0.0 1.9----30.01- 75.2-----
2024-04-12 11:30 amWNW 1.0 1.9----30.01- 75.0-----
2024-04-12 11:24 am- 0.0 2.9----30.01- 75.0-----
2024-04-12 11:18 am- 0.0 4.1----30.01- 74.8-----
2024-04-12 11:12 amNNE 2.9 5.1----30.02- 74.3-----
2024-04-12 11:06 amNNW 5.1 6.0----30.03- 74.1-----
2024-04-12 11:00 amWNW 2.9 5.1----30.03-0.05 73.9-----
2024-04-12 10:54 am W 5.1 6.0----30.05- 73.8-----
2024-04-12 10:48 am W 5.1 7.0----30.05- 73.8-----
2024-04-12 10:42 am W 2.9 4.1----30.05- 73.8-----
2024-04-12 10:36 am NE 1.9 2.9----30.03- 73.8-----
2024-04-12 10:30 am NE 1.9 4.1----30.03- 73.8-----
2024-04-12 10:24 amNNW 5.1 5.1----30.03- 73.6-----
2024-04-12 10:18 am NW 4.1 6.0----30.04- 73.6-----
2024-04-12 10:12 amWNW 6.0 8.9----30.05- 73.6-----
2024-04-12 10:06 amNNW 5.1 6.0----30.05- 73.8-----
2024-04-12 10:00 amNNE 2.9 4.1----30.04-0.02 73.6-----
2024-04-12 09:54 am- 0.0 2.9----30.04- 73.8-----
2024-04-12 09:48 amESE 4.1 8.0----30.03- 73.2-----
2024-04-12 09:42 am S 5.1 6.0----30.04- 73.4-----
2024-04-12 09:36 amSSE 1.0 8.0----30.04- 73.2-----
2024-04-12 09:30 amESE 6.0 11.1----30.03- 72.9-----
2024-04-12 09:24 amENE 7.0 12.0----30.01- 72.7-----
2024-04-12 09:18 am NE 8.9 13.0----30.01- 72.3-----
2024-04-12 09:12 amENE 9.9 14.0----30.03- 72.1-----
2024-04-12 09:06 amENE 7.0 13.0----30.04- 72.3-----
2024-04-12 09:00 am NE 8.0 13.0----30.06+0.06 72.0-----
2024-04-12 08:54 am NE 8.0 11.1----30.06- 71.8-----